Limerick, Ireland

9:21 AM GMT on February 22, 2017 (GMT +0000)
Shannon

Weather History for EINN - May, 2013

Change the Weather History Date:

Tuesday, May 28, 2013

  Actual Average Record
Temperature  
Mean Temperature 51 °F -  
Max Temperature 57 °F 64 °F 72 °F (2014)
Min Temperature 45 °F 50 °F 37 °F (2007)
Degree Days  
Heating Degree Days 14    
Growing Degree Days 1 (Base 50)    
Moisture  
Dew Point 46 °F    
Average Humidity 82    
Maximum Humidity 100    
Minimum Humidity 62    
Precipitation  
Precipitation 0.00 in 0.08 in - ()
Sea Level Pressure  
Sea Level Pressure 29.61 in    
Wind  
Wind Speed 11 mph ()    
Max Wind Speed 22 mph    
Max Gust Speed -    
Visibility 6.6 miles    
Events Rain    
Averages and records for this station are not official NWS values.
T = Trace of Precipitation, MM = Missing Value Source: Averaged Metar Reports

Daily Weather History Graph

Daily Weather History Graph

Search for Another Location

Airport or City:

Trip Planner

Search our weather history database for the weather conditions in past years. The results will help you decide how hot, cold, wet, or windy it might be!

Date:

Astronomy

May. 28, 2013 Rise Set
Actual Time 5:21 AM IST 9:45 PM IST
Civil Twilight 4:34 AM IST 10:32 PM IST
Nautical Twilight 3:24 AM IST 11:43 PM IST
Astronomical Twilight 2:05 AM IST 1:00 AM IST
Moon 12:02 AM IST (5/28) 9:05 AM IST (5/28)
Length of Visible Light 17h 57m
Length of Day
16h 23m
Waning Gibbous, 85% of the Moon is Illuminated
May 28
Waning Gibbous
May 31
Last Quarter
Jun 8
New
Jun 16
First Quarter
Jun 23
Full

Hourly Weather History & Observations

Time (IST) Temp. Windchill Dew Point Humidity Pressure Visibility Wind Dir Wind Speed Gust Speed Precip Events Conditions
12:00 AM 46.4 °F 41.9 °F 42.8 °F 87% 29.53 in 6.2 mi WSW 9.2 mph - N/A Rain Light Rain Showers
12:30 AM 46.4 °F 41.9 °F 44.6 °F 93% 29.53 in 6.2 mi SW 9.2 mph - N/A Rain Light Rain Showers
1:00 AM 47 °F - 44 °F 87% 29.55 in 12 mi WSW 8.9 mph - - Rain Light Rain Showers
1:00 AM 46.4 °F 42.4 °F 44.6 °F 93% 29.53 in 6.2 mi WSW 8.1 mph - N/A   Mostly Cloudy
1:30 AM 46.4 °F 42.4 °F 44.6 °F 93% 29.53 in 6.2 mi SW 8.1 mph - N/A   Mostly Cloudy
2:00 AM 46.4 °F 42.4 °F 44.6 °F 93% 29.53 in 6.2 mi SW 8.1 mph - N/A Rain Light Rain Showers
2:30 AM 46.4 °F 42.4 °F 44.6 °F 93% 29.53 in 6.2 mi SW 8.1 mph - N/A Rain Light Rain Showers
3:00 AM 46.4 °F 42.4 °F 44.6 °F 93% 29.53 in 6.2 mi SW 8.1 mph - N/A   Mostly Cloudy
3:30 AM 46.4 °F 42.9 °F 44.6 °F 93% 29.53 in 6.2 mi SW 6.9 mph - N/A Rain Light Rain Showers
4:00 AM 46.4 °F 42.4 °F 44.6 °F 93% 29.53 in 6.2 mi SW 8.1 mph - N/A Rain Light Rain Showers
4:30 AM 46.4 °F 42.4 °F 46.4 °F 100% 29.53 in 6.2 mi WSW 8.1 mph - N/A Rain Light Rain Showers
5:00 AM 46.4 °F 42.9 °F 44.6 °F 93% 29.53 in 5.0 mi WSW 6.9 mph - N/A Rain Light Rain Showers
5:30 AM 46.4 °F 44.3 °F 44.6 °F 93% 29.53 in 6.2 mi WSW 4.6 mph - N/A   Mostly Cloudy
6:00 AM 46.4 °F 44.3 °F 46.4 °F 100% 29.53 in 6.2 mi WSW 4.6 mph - N/A Rain Light Rain Showers
6:30 AM 48.2 °F - 46.4 °F 93% 29.53 in 6.2 mi WSW 8.1 mph - N/A Rain Light Rain Showers
7:00 AM 48 °F - 46 °F 92% 29.58 in 11 mi WSW 8.9 mph - - Rain Light Rain Showers
7:00 AM 48.2 °F - 46.4 °F 93% 29.56 in 6.2 mi WSW 8.1 mph - N/A   Mostly Cloudy
7:30 AM 48.2 °F - 46.4 °F 93% 29.56 in 6.2 mi WSW 9.2 mph - N/A   Mostly Cloudy
8:00 AM 50.0 °F - 48.2 °F 94% 29.56 in 6.2 mi West 8.1 mph - N/A   Mostly Cloudy
8:30 AM 50.0 °F - 46.4 °F 87% 29.56 in 6.2 mi West 15.0 mph - N/A   Scattered Clouds
9:00 AM 51.8 °F - 48.2 °F 88% 29.56 in 6.2 mi WNW 11.5 mph - N/A   Partly Cloudy
9:30 AM 53.6 °F - 46.4 °F 77% 29.59 in 6.2 mi West 13.8 mph - N/A   Mostly Cloudy
10:00 AM 51.8 °F - 46.4 °F 82% 29.59 in 4.3 mi West 13.8 mph - N/A   Mostly Cloudy
10:30 AM 51.8 °F - 46.4 °F 82% 29.59 in 6.2 mi West 16.1 mph - N/A   Scattered Clouds
11:00 AM 51.8 °F - 46.4 °F 82% 29.59 in 6.2 mi West 17.3 mph - N/A   Mostly Cloudy
11:30 AM 53.6 °F - 44.6 °F 72% 29.59 in 6.2 mi West 18.4 mph - N/A   Mostly Cloudy
12:00 PM 53.6 °F - 46.4 °F 77% 29.59 in 6.2 mi West 18.4 mph - N/A   Mostly Cloudy
12:30 PM 53.6 °F - 44.6 °F 72% 29.62 in 6.2 mi WNW 17.3 mph - N/A   Scattered Clouds
1:00 PM 56 °F - 47 °F 62% 29.63 in 16 mi West 17.9 mph - - Rain Light Rain Showers
1:00 PM 55.4 °F - 46.4 °F 72% 29.62 in 6.2 mi West 18.4 mph - N/A   Scattered Clouds
1:30 PM 57.2 °F - 44.6 °F 63% 29.62 in 6.2 mi West 19.6 mph - N/A   Scattered Clouds
2:00 PM 55.4 °F - 46.4 °F 72% 29.62 in 6.2 mi West 20.7 mph - N/A   Partly Cloudy
2:30 PM 55.4 °F - 44.6 °F 67% 29.62 in 6.2 mi West 18.4 mph - N/A   Partly Cloudy
3:00 PM 55.4 °F - 44.6 °F 67% 29.62 in 6.2 mi WNW 17.3 mph - N/A   Mostly Cloudy
3:30 PM 57.2 °F - 44.6 °F 63% 29.65 in 6.2 mi WNW 17.3 mph - N/A   Mostly Cloudy
4:00 PM 57.2 °F - 46.4 °F 67% 29.65 in 6.2 mi West 19.6 mph - N/A   Mostly Cloudy
4:30 PM 57.2 °F - 46.4 °F 67% 29.65 in 6.2 mi WNW 20.7 mph - N/A   Scattered Clouds
5:00 PM 57.2 °F - 46.4 °F 67% 29.65 in 6.2 mi WNW 21.9 mph - N/A   Scattered Clouds
5:30 PM 55.4 °F - 46.4 °F 72% 29.65 in 6.2 mi West 20.7 mph - N/A   Scattered Clouds
6:00 PM 55.4 °F - 46.4 °F 72% 29.65 in 6.2 mi WNW 20.7 mph - N/A   Scattered Clouds
6:30 PM 53.6 °F - 46.4 °F 77% 29.68 in 6.2 mi WNW 18.4 mph - N/A   Scattered Clouds
7:00 PM 54 °F - 47 °F 68% 29.70 in 10 mi WNW 17.9 mph - -   Mostly Cloudy
7:00 PM 53.6 °F - 46.4 °F 77% 29.68 in 6.2 mi WNW 17.3 mph - N/A   Scattered Clouds
7:30 PM 53.6 °F - 46.4 °F 77% 29.68 in 6.2 mi WNW 16.1 mph - N/A   Partly Cloudy
8:00 PM 53.6 °F - 46.4 °F 77% 29.68 in 6.2 mi WNW 18.4 mph - N/A   Partly Cloudy
8:30 PM 51.8 °F - 46.4 °F 82% 29.71 in 6.2 mi WNW 15.0 mph - N/A   Partly Cloudy
9:00 PM 51.8 °F - 46.4 °F 82% 29.71 in 6.2 mi WNW 16.1 mph - N/A   Partly Cloudy
9:30 PM 50.0 °F - 46.4 °F 87% 29.71 in 6.2 mi WNW 12.7 mph - N/A   Partly Cloudy
10:00 PM 50.0 °F - 46.4 °F 87% 29.71 in 6.2 mi WNW 11.5 mph - N/A   Partly Cloudy
10:30 PM 50.0 °F - 46.4 °F 87% 29.74 in 6.2 mi WNW 10.4 mph - N/A   Mostly Cloudy
11:00 PM 50.0 °F - 46.4 °F 87% 29.74 in 6.2 mi WNW 9.2 mph - N/A   Scattered Clouds
11:30 PM 48.2 °F - 46.4 °F 93% 29.74 in 6.2 mi NNW 5.8 mph - N/A   Scattered Clouds